Hurricane Symbol View the latest observations near Atlantic Remnants Of Alberto.

Station SJSN4 - 8537121 - Ship John Shoal, NJ Image indicating link to RSS feed of recent meteorological observations for station SJSN4


Conditions at SJSN4 as of
(5:48 pm EDT)
2148 GMT on 06/20/2024:
     

Click on the graph icon in the table below to see a time series plot of the last five days of that observation.

5-day plot - Wind Direction Wind Direction (WDIR):SSE ( 150 deg true )
5-day plot - Wind Speed Wind Speed (WSPD): 19.0 kts
5-day plot - Wind Gust Wind Gust (GST): 20.0 kts
5-day plot - Atmospheric Pressure Atmospheric Pressure (PRES):30.27 in
5-day plot - Air Temperature Air Temperature (ATMP): 78.1 °F
5-day plot - Wind Speed at 10 Meters Wind Speed at 10 meters (WSPD10M): 17.5 kts
5-day plot - Wind Speed at 20 Meters Wind Speed at 20 meters (WSPD20M): 19.4 kts
5-day plot -  Wind Speed, Wind Gust and Atmospheric Pressure Combined plot of Wind Speed, Gust, and Air Pressure
NOS Water Level Observation Network Water Level
Previous observations
TIME
(EDT)
5-day plot - Wind Direction
WDIR
 
5-day plot - Wind Speed
WSPD
kts
5-day plot - Wind Gust
GST
kts
5-day plot - Wave Height
WVHT
ft
5-day plot - Dominant Wave Period
DPD
sec
5-day plot - Average Wave Period
APD
sec
5-day plot - Mean Wave Direction
MWD
 
5-day plot - Atmospheric Pressure
PRES
in
5-day plot - Pressure Tendency
PTDY
in
5-day plot - Air Temperature
ATMP
°F
5-day plot - Water Temperature
WTMP
°F
5-day plot - Dew Point
DEWP
°F
5-day plot - Salinity
SAL
psu
5-day plot - Visibility
VIS
nmi
5-day plot - Tide (above MLLW)
TIDE
ft
2024-06-20 05:42 pmSSE 18.1 19.0----30.27- 77.9-----
2024-06-20 05:36 pmSSE 18.1 19.0----30.27- 77.9-----
2024-06-20 05:30 pmSSE 17.1 19.0----30.27- 77.9-----
2024-06-20 05:24 pmSSE 19.0 20.0----30.27- 78.1-----
2024-06-20 05:18 pmSSE 19.0 21.0----30.27- 77.9-----
2024-06-20 05:12 pmSSE 19.0 20.0----30.27- 77.7-----
2024-06-20 05:06 pmSSE 19.0 21.0----30.28- 77.5-----
2024-06-20 05:00 pmSSE 18.1 19.0----30.28-0.05 77.5-----
2024-06-20 04:54 pmSSE 19.0 20.0----30.28- 77.5-----
2024-06-20 04:48 pmSSE 18.1 19.0----30.28- 77.9-----
2024-06-20 04:42 pm SE 18.1 19.0----30.29- 77.5-----
2024-06-20 04:36 pm SE 15.9 18.1----30.29- 77.5-----
2024-06-20 04:30 pm SE 18.1 19.0----30.29- 77.7-----
2024-06-20 04:24 pm SE 18.1 19.0----30.29- 77.4-----
2024-06-20 04:18 pm SE 15.9 18.1----30.29- 77.4-----
2024-06-20 04:12 pmSSE 17.1 19.0----30.30- 77.5-----
2024-06-20 04:06 pmSSE 17.1 19.0----30.30- 77.5-----
2024-06-20 04:00 pm SE 15.9 18.1----30.30-0.04 77.2-----
2024-06-20 03:54 pm SE 15.0 17.1----30.30- 77.7-----
2024-06-20 03:48 pm SE 15.9 17.1----30.30- 77.7-----
2024-06-20 03:42 pm SE 15.9 17.1----30.31- 77.4-----
2024-06-20 03:36 pm SE 15.0 15.9----30.31- 77.4-----
2024-06-20 03:30 pm SE 14.0 15.0----30.31-------
2024-06-20 03:24 pm SE 15.0 15.9----30.31-------
2024-06-20 03:18 pm SE 15.0 15.9----30.32- 77.2-----
2024-06-20 03:12 pm SE 14.0 15.0----30.32- 77.2-----
2024-06-20 03:06 pm SE 14.0 14.0----30.32- 77.4-----
2024-06-20 03:00 pm SE 12.0 13.0----30.32-0.04 77.4-----
2024-06-20 02:54 pm SE 12.0 13.0----30.32- 77.4-----
2024-06-20 02:48 pm SE 12.0 12.0----30.32- 77.7-----
2024-06-20 02:42 pm SE 12.0 14.0----30.32- 77.7-----
2024-06-20 02:36 pm SE 12.0 14.0----30.32- 77.7-----
2024-06-20 02:30 pm SE 12.0 14.0----30.32- 77.4-----
2024-06-20 02:24 pm SE 12.0 13.0----30.32- 77.7-----
2024-06-20 02:18 pm SE 13.0 14.0----30.33- 77.7-----
2024-06-20 02:12 pm SE 13.0 15.0----30.33- 77.2-----
2024-06-20 02:06 pm SE 13.0 14.0----30.33- 77.0-----
2024-06-20 02:00 pm SE 13.0 15.0----30.33-0.04 77.4-----
2024-06-20 01:54 pm SE 14.0 15.0----30.33- 77.4-----
2024-06-20 01:48 pm SE 13.0 15.0----30.34- 77.0-----
2024-06-20 01:42 pm SE 13.0 14.0----30.34- 77.0-----
2024-06-20 01:36 pm SE 14.0 15.0----30.34- 76.6-----
2024-06-20 01:30 pm SE 13.0 14.0----30.34- 76.6-----
2024-06-20 01:24 pm SE 13.0 14.0----30.34- 76.6-----
2024-06-20 01:18 pm SE 13.0 14.0----30.34- 76.6-----
2024-06-20 01:12 pm SE 13.0 15.0----30.34- 76.6-----
2024-06-20 01:06 pm SE 14.0 15.0----30.34- 76.5-----
2024-06-20 01:00 pm SE 14.0 15.0----30.34-0.03 76.6-----
2024-06-20 12:54 pm SE 15.0 15.0----30.34- 76.3-----
2024-06-20 12:48 pm SE 13.0 14.0----30.35- 76.5-----
2024-06-20 12:42 pm SE 12.0 13.0----30.35- 76.5-----
2024-06-20 12:36 pm SE 12.0 13.0----30.35- 76.5-----
2024-06-20 12:30 pm SE 11.1 12.0----30.35- 76.5-----
2024-06-20 12:24 pm SE 11.1 12.0----30.35- 76.3-----
2024-06-20 12:18 pm SE 9.9 11.1----30.35- 76.5-----
2024-06-20 12:12 pm SE 9.9 11.1----30.36- 76.3-----
2024-06-20 12:06 pmESE 9.9 11.1----30.36- 76.3-----
2024-06-20 12:00 pmESE 9.9 9.9----30.36-0.01 76.5-----
2024-06-20 11:54 am SE 8.0 8.9----30.36- 76.6-----
2024-06-20 11:48 am SE 8.9 9.9----30.36- 76.5-----
2024-06-20 11:42 am SE 8.0 8.9----30.36- 76.5-----
2024-06-20 11:36 am SE 8.9 11.1----30.36- 76.8-----
2024-06-20 11:30 am SE 9.9 11.1----30.36- 77.0-----
2024-06-20 11:24 am SE 9.9 9.9----30.36- 76.6-----
2024-06-20 11:18 am SE 9.9 11.1----30.36- 76.8-----
2024-06-20 11:12 am SE 8.9 11.1----30.36- 76.6-----
2024-06-20 11:06 am SE 8.0 8.9----30.36- 76.5-----
2024-06-20 11:00 am SE 8.0 9.9----30.36+0.00 76.5-----
2024-06-20 10:54 am SE 9.9 9.9----30.36- 76.3-----
2024-06-20 10:48 am SE 9.9 11.1----30.36- 76.1-----
2024-06-20 10:42 am SE 8.9 11.1----30.36- 76.1-----
2024-06-20 10:36 am SE 9.9 11.1----30.37- 76.5-----
2024-06-20 10:30 am SE 8.9 9.9----30.37- 77.2-----
2024-06-20 10:24 amSSE 8.9 9.9----30.37- 77.7-----
2024-06-20 10:18 amSSE 8.0 8.9----30.37- 77.4-----
2024-06-20 10:12 amSSE 8.9 9.9----30.37- 76.8-----
2024-06-20 10:06 amSSE 8.0 8.9----30.37- 77.0-----
2024-06-20 10:00 amSSE 7.0 8.0----30.37+0.02 77.7-----
2024-06-20 09:54 amSSE 6.0 7.0----30.37- 77.4-----
2024-06-20 09:48 amSSE 5.1 7.0----30.38- 77.7-----
2024-06-20 09:42 amSSE 4.1 5.1----30.38- 77.7-----
2024-06-20 09:36 amSSE 2.9 7.0----30.38- 77.5-----
2024-06-20 09:30 am S 5.1 6.0----30.38- 76.6-----
2024-06-20 09:24 am S 5.1 7.0----30.38- 76.5-----
2024-06-20 09:18 am S 7.0 8.0----30.38- 76.1-----
2024-06-20 09:12 am S 7.0 8.0----30.37- 75.7-----
2024-06-20 09:06 am S 7.0 8.0----30.37- 75.6-----
2024-06-20 09:00 am S 7.0 8.0----30.37+0.03 75.0-----
2024-06-20 08:54 am S 7.0 8.9----30.37- 74.8-----
2024-06-20 08:48 am S 7.0 8.0----30.37- 74.5-----
2024-06-20 08:42 am S 7.0 7.0----30.37- 74.3-----
2024-06-20 08:36 am S 5.1 7.0----30.37- 74.1-----
2024-06-20 08:30 am S 5.1 7.0----30.37- 73.9-----
2024-06-20 08:24 am S 6.0 7.0----30.37- 73.8-----
2024-06-20 08:18 am S 6.0 7.0----30.37- 73.4-----
2024-06-20 08:12 amSSW 6.0 8.0----30.37- 73.4-----
2024-06-20 08:06 amSSW 6.0 7.0----30.37- 73.2-----
2024-06-20 08:00 amSSW 6.0 6.0----30.37+0.03 73.2-----
2024-06-20 07:54 amSSW 6.0 7.0----30.37- 72.9-----
2024-06-20 07:48 amSSW 6.0 7.0----30.36- 72.9-----
2024-06-20 07:42 amSSW 5.1 6.0----30.36- 72.7-----
2024-06-20 07:36 amSSW 5.1 6.0----30.36- 72.7-----
2024-06-20 07:30 am SW 6.0 6.0----30.36- 72.3-----
2024-06-20 07:24 am SW 6.0 6.0----30.36- 72.5-----
2024-06-20 07:18 am SW 6.0 7.0----30.36- 72.1-----
2024-06-20 07:12 am SW 6.0 8.0----30.36- 72.3-----
2024-06-20 07:06 amSSW 7.0 8.0----30.36- 72.0-----
2024-06-20 07:00 amSSW 7.0 8.9----30.35+0.02 71.8-----
2024-06-20 06:54 amSSW 8.0 8.9----30.35- 71.6-----
2024-06-20 06:48 amSSW 8.0 8.9----30.35- 71.6-----
2024-06-20 06:42 amSSW 7.0 8.0----30.35- 71.8-----
2024-06-20 06:36 amSSW 7.0 8.0----30.35- 71.4-----
2024-06-20 06:30 amSSW 7.0 8.0----30.35- 71.4-----
2024-06-20 06:24 amSSW 7.0 8.0----30.35- 71.4-----
2024-06-20 06:18 amSSW 7.0 8.0----30.35- 71.2-----
2024-06-20 06:12 amSSW 7.0 8.0----30.35- 71.4-----
2024-06-20 06:06 amSSW 8.0 8.9----30.35- 71.1-----
2024-06-20 06:00 am SW 8.0 9.9----30.35+0.01 71.2-----
2024-06-20 05:54 am SW 8.9 9.9----30.35- 71.1-----
2024-06-20 05:48 am SW 8.9 9.9----30.35- 71.1-----
2024-06-20 05:42 am SW 8.9 9.9----30.35- 71.2-----
2024-06-20 05:36 am SW 8.9 9.9----30.35- 71.4-----
2024-06-20 05:30 am SW 8.0 9.9----30.34- 71.2-----
2024-06-20 05:24 amSSW 8.0 8.9----30.34- 71.4-----
2024-06-20 05:18 amSSW 8.0 8.9----30.34- 71.4-----
2024-06-20 05:12 amSSW 7.0 9.9----30.34- 71.4-----
2024-06-20 05:06 amSSW 7.0 8.0----30.34- 71.8-----
2024-06-20 05:00 amSSW 7.0 8.9----30.34+0.01 71.6-----
2024-06-20 04:54 am SW 7.0 8.9----30.34- 71.8-----
2024-06-20 04:48 am SW 7.0 8.0----30.34- 71.8-----
2024-06-20 04:42 am SW 7.0 8.0----30.34- 72.0-----
2024-06-20 04:36 am SW 7.0 8.0----30.34- 71.8-----
2024-06-20 04:30 am SW 7.0 8.0----30.34- 72.0-----
2024-06-20 04:24 amSSW 7.0 8.0----30.34- 71.8-----
2024-06-20 04:18 amSSW 6.0 8.0----30.34- 72.0-----
2024-06-20 04:12 amSSW 6.0 8.0----30.34- 72.0-----
2024-06-20 04:06 amSSW 7.0 8.9----30.34- 72.1-----
2024-06-20 04:00 amSSW 6.0 8.9----30.34+0.00 72.1-----
2024-06-20 03:54 amSSW 7.0 8.0----30.34- 72.1-----
2024-06-20 03:48 amSSW 6.0 7.0----30.34- 72.1-----
2024-06-20 03:42 amSSW 6.0 8.0----30.34- 72.1-----
2024-06-20 03:36 amSSW 7.0 8.0----30.33- 72.1-----
2024-06-20 03:30 am SW 7.0 8.0----30.33- 72.3-----
2024-06-20 03:24 amSSW 8.0 8.9----30.33- 72.5-----
2024-06-20 03:18 amSSW 8.0 8.9----30.33- 72.3-----
2024-06-20 03:12 amSSW 8.0 8.9----30.33- 72.3-----
2024-06-20 03:06 amSSW 8.9 8.9----30.33- 72.3-----
2024-06-20 03:00 amSSW 8.0 9.9----30.33-0.01 72.5-----
2024-06-20 02:54 amSSW 8.9 9.9----30.33- 72.7-----
2024-06-20 02:48 amSSW 8.9 9.9----30.33- 72.5-----
2024-06-20 02:42 amSSW 8.9 9.9----30.33- 72.7-----
2024-06-20 02:36 amSSW 8.9 11.1----30.33- 72.9-----
2024-06-20 02:30 amSSW 7.0 9.9----30.33- 72.9-----
2024-06-20 02:24 amSSW 8.9 9.9----30.33- 73.0-----
2024-06-20 02:18 amSSW 9.9 11.1----30.33- 73.0-----
2024-06-20 02:12 amSSW 8.9 11.1----30.33- 73.0-----
2024-06-20 02:06 amSSW 8.9 9.9----30.33- 73.0-----
2024-06-20 02:00 amSSW 8.9 9.9----30.33-0.02 73.2-----
2024-06-20 01:54 amSSW 8.0 9.9----30.33- 73.0-----
2024-06-20 01:48 amSSW 8.9 9.9----30.33- 73.4-----
2024-06-20 01:42 amSSW 8.0 9.9----30.33- 73.2-----
2024-06-20 01:36 amSSW 8.9 12.0----30.33- 73.2-----
2024-06-20 01:30 amSSW 11.1 12.0----30.33- 73.2-----
2024-06-20 01:24 amSSW 9.9 12.0----30.34- 73.4-----
2024-06-20 01:18 amSSW 9.9 12.0----30.33- 73.4-----
2024-06-20 01:12 amSSW 11.1 12.0----30.33- 73.4-----
2024-06-20 01:06 amSSW 9.9 12.0----30.33- 73.2-----
2024-06-20 01:00 amSSW 9.9 12.0----30.33-0.01 73.4-----
2024-06-20 12:54 amSSW 9.9 13.0----30.34- 73.6-----
2024-06-20 12:48 amSSW 12.0 13.0----30.33- 73.4-----
2024-06-20 12:42 amSSW 11.1 13.0----30.34- 73.4-----
2024-06-20 12:36 amSSW 12.0 13.0----30.34- 73.6-----
2024-06-20 12:30 amSSW 12.0 13.0----30.34- 73.6-----
2024-06-20 12:24 amSSW 11.1 13.0----30.34- 73.6-----
2024-06-20 12:18 amSSW 11.1 14.0----30.34- 73.8-----
2024-06-20 12:12 amSSW 12.0 15.0----30.35- 73.9-----
2024-06-20 12:06 amSSW 12.0 14.0----30.35- 73.9-----
2024-06-20 12:00 amSSW 12.0 15.0----30.35+0.01 74.1-----
2024-06-19 11:54 pmSSW 13.0 15.0----30.35- 74.1-----
2024-06-19 11:48 pmSSW 14.0 15.9----30.35- 74.1-----
2024-06-19 11:42 pm S 13.0 17.1----30.35- 74.5-----
2024-06-19 11:36 pm S 15.0 18.1----30.35- 74.5-----
2024-06-19 11:30 pm S 15.0 17.1----30.35- 74.8-----
2024-06-19 11:24 pm S 15.9 19.0----30.35- 74.8-----
2024-06-19 11:18 pm S 15.9 18.1----30.35- 75.2-----
2024-06-19 11:12 pm S 17.1 18.1----30.35- 75.4-----
2024-06-19 11:06 pm S 17.1 18.1----30.35- 75.6-----
2024-06-19 11:00 pm S 15.9 18.1----30.35+0.03 75.7-----
2024-06-19 10:54 pm S 15.9 18.1----30.36- 75.7-----
2024-06-19 10:48 pm S 15.0 17.1----30.35- 75.7-----
2024-06-19 10:42 pm S 14.0 15.9----30.36- 75.2-----
2024-06-19 10:36 pm S 15.0 18.1----30.36- 75.2-----
2024-06-19 10:30 pmSSE 15.0 17.1----30.36- 75.2-----
2024-06-19 10:24 pmSSE 17.1 18.1----30.35- 75.0-----
2024-06-19 10:18 pmSSE 17.1 18.1----30.35- 75.2-----
2024-06-19 10:12 pmSSE 18.1 19.0----30.35- 75.2-----
2024-06-19 10:06 pmSSE 18.1 20.0----30.35- 75.2-----
2024-06-19 10:00 pmSSE 18.1 21.0----30.35+0.02 75.6-----
2024-06-19 09:54 pmSSE 19.0 21.0----30.35- 75.4-----
2024-06-19 09:48 pmSSE 18.1 21.0----30.35- 75.6-----
2024-06-19 09:42 pmSSE 19.0 20.0----30.34- 75.6-----
2024-06-19 09:36 pmSSE 18.1 20.0----30.34- 75.6-----
2024-06-19 09:30 pmSSE 18.1 20.0----30.34- 75.7-----
2024-06-19 09:24 pmSSE 19.0 20.0----30.34- 75.4-----
2024-06-19 09:18 pmSSE 19.0 20.0----30.34- 75.2-----
2024-06-19 09:12 pmSSE 18.1 20.0----30.33- 75.0-----
2024-06-19 09:06 pmSSE 19.0 20.0----30.34- 74.8-----
2024-06-19 09:00 pmSSE 20.0 21.0----30.34+0.00 74.8-----
2024-06-19 08:54 pmSSE 19.0 21.0----30.33- 74.8-----
2024-06-19 08:48 pm SE 20.0 21.0----30.33- 74.8-----
2024-06-19 08:42 pm SE 20.0 22.0----30.33- 75.0-----
2024-06-19 08:36 pm SE 20.0 22.0----30.33- 75.0-----
2024-06-19 08:30 pm SE 19.0 21.0----30.33- 75.2-----
2024-06-19 08:24 pm SE 20.0 22.0----30.33- 75.0-----
2024-06-19 08:18 pm SE 20.0 22.0----30.33- 75.0-----
2024-06-19 08:12 pm SE 20.0 22.0----30.33- 75.2-----
2024-06-19 08:06 pm SE 21.0 22.9----30.33- 75.0-----
2024-06-19 08:00 pm SE 21.0 24.1----30.33-0.01 75.2-----
2024-06-19 07:54 pm SE 22.0 22.9----30.33- 75.2-----
2024-06-19 07:48 pm SE 20.0 22.0----30.33- 75.4-----
2024-06-19 07:42 pm SE 21.0 22.9----30.32- 75.6-----
2024-06-19 07:36 pm SE 21.0 22.9----30.32- 75.6-----
2024-06-19 07:30 pm SE 22.0 24.1----30.32- 75.6-----
2024-06-19 07:24 pm SE 22.0 22.9----30.32- 75.6-----
2024-06-19 07:00 pm SE 22.9 24.1----30.32-0.02 75.7-----
2024-06-19 06:54 pm SE 22.0 22.9----30.33- 75.9-----
2024-06-19 06:48 pm SE 21.0 22.9----30.33-------
2024-06-19 06:42 pm SE 22.0 22.9----30.33-------
2024-06-19 06:36 pm SE 21.0 22.9----30.33-------
2024-06-19 06:30 pm SE 20.0 22.9----30.33- 75.9-----
2024-06-19 06:24 pm SE 21.0 22.9----30.33- 75.9-----
2024-06-19 06:18 pm SE 20.0 22.9----30.33- 75.9-----
2024-06-19 06:12 pmSSE 19.0 22.0----30.33- 75.9-----
2024-06-19 06:06 pm SE 21.0 22.9----30.33- 76.1-----
2024-06-19 06:00 pm SE 20.0 22.9----30.33-0.02 75.9-----
2024-06-19 05:54 pm SE 20.0 22.9----30.33- 76.1-----